| time (UTC) | temp F | wind direction | speed MPH | gust MPH | rain 1hr in | rain 24hr in | rain mn in | humidity % | barometer mb |
| 20260506232254 | 69 | 320 | 1.0 | 12.0 | 0.00 | 0.00 | 0.00 | 42 | |
| 20260506231751 | 68 | 305 | 7.0 | 14.0 | 0.00 | 0.00 | 0.00 | 42 | |
| 20260506231249 | 69 | 306 | 7.0 | 10.0 | 0.00 | 0.00 | 0.00 | 42 | |
| 20260506230745 | 68 | 246 | 3.0 | 10.0 | 0.00 | 0.00 | 0.00 | 41 | |
| 20260506230243 | 68 | 242 | 5.0 | 12.0 | 0.00 | 0.00 | 0.00 | 42 | |
| 20260506225739 | 68 | 359 | 2.0 | 9.0 | 0.00 | 0.00 | 0.00 | 42 | |
| 20260506225236 | 70 | 13 | 2.0 | 10.0 | 0.00 | 0.00 | 0.00 | 41 | |
| 20260506224732 | 70 | 330 | 3.0 | 8.0 | 0.00 | 0.00 | 0.00 | 39 | |
| 20260506224230 | 70 | 279 | 5.0 | 11.0 | 0.00 | 0.00 | 0.00 | 41 | |
| 20260506223726 | 70 | 109 | 1.0 | 9.0 | 0.00 | 0.00 | 0.00 | 40 | |
| 20260506223222 | 70 | 258 | 2.0 | 15.0 | 0.00 | 0.00 | 0.00 | 41 | |
| 20260506222719 | 71 | 355 | 3.0 | 5.0 | 0.00 | 0.00 | 0.00 | 41 | |
| 20260506222214 | 71 | 189 | 3.0 | 7.0 | 0.00 | 0.00 | 0.00 | 40 | |
| 20260506221713 | 70 | 127 | 3.0 | 7.0 | 0.00 | 0.00 | 0.00 | 42 | |
| 20260506221211 | 70 | 302 | 4.0 | 8.0 | 0.00 | 0.00 | 0.00 | 42 | |
| 20260506220708 | 69 | 222 | 3.0 | 10.0 | 0.00 | 0.00 | 0.00 | 42 | |
| 20260506220202 | 70 | 327 | 3.0 | 7.0 | 0.00 | 0.00 | 0.00 | 43 | |
| 20260506215659 | 70 | 220 | 3.0 | 7.0 | 0.00 | 0.00 | 0.00 | 43 | |
| 20260506215154 | 70 | 294 | 3.0 | 11.0 | 0.00 | 0.00 | 0.00 | 43 | |
| 20260506214651 | 72 | 277 | 2.0 | 8.0 | 0.00 | 0.00 | 0.00 | 43 | |
| 20260506214149 | 72 | 235 | 2.0 | 5.0 | 0.00 | 0.00 | 0.00 | 43 | |
| 20260506213647 | 71 | 184 | 5.0 | 11.0 | 0.00 | 0.00 | 0.00 | 43 | |
| 20260506213144 | 72 | 271 | 2.0 | 6.0 | 0.00 | 0.00 | 0.00 | 43 | |
| 20260506212641 | 71 | 215 | 3.0 | 6.0 | 0.00 | 0.00 | 0.00 | 44 | |
| 20260506212136 | 70 | 263 | 2.0 | 9.0 | 0.00 | 0.00 | 0.00 | 45 | |
| 20260506211632 | 70 | 312 | 4.0 | 10.0 | 0.00 | 0.00 | 0.00 | 45 | |
| 20260506211129 | 70 | 20 | 5.0 | 7.0 | 0.00 | 0.00 | 0.00 | 46 | |
| 20260506210626 | 70 | 107 | 4.0 | 8.0 | 0.00 | 0.00 | 0.00 | 46 | |
| 20260506210122 | 70 | 224 | 0.0 | 7.0 | 0.00 | 0.00 | 0.00 | 47 | |
| 20260506205619 | 69 | 302 | 2.0 | 8.0 | 0.00 | 0.00 | 0.00 | 47 | |
| 20260506205114 | 69 | 268 | 4.0 | 18.0 | 0.00 | 0.00 | 0.00 | 48 | |
| 20260506204612 | 69 | 271 | 2.0 | 11.0 | 0.00 | 0.00 | 0.00 | 49 | |
| 20260506204109 | 69 | 273 | 5.0 | 13.0 | 0.00 | 0.00 | 0.00 | 49 | |
| 20260506203607 | 69 | 275 | 0.0 | 16.0 | 0.00 | 0.00 | 0.00 | 50 | |
| 20260506203103 | 69 | 228 | 3.0 | 9.0 | 0.00 | 0.00 | 0.00 | 49 | |
| 20260506202601 | 69 | 252 | 3.0 | 14.0 | 0.00 | 0.00 | 0.00 | 49 | |
| 20260506202057 | 69 | 194 | 4.0 | 10.0 | 0.00 | 0.00 | 0.00 | 49 | |
| 20260506201555 | 69 | 329 | 3.0 | 11.0 | 0.00 | 0.00 | 0.00 | 48 | |
| 20260506201051 | 69 | 251 | 4.0 | 15.0 | 0.00 | 0.00 | 0.00 | 48 | |
| 20260506200547 | 68 | 241 | 8.0 | 15.0 | 0.00 | 0.00 | 0.00 | 47 | |
| 20260506200044 | 69 | 266 | 5.0 | 11.0 | 0.00 | 0.00 | 0.00 | 46 | |
| 20260506195541 | 69 | 242 | 3.0 | 15.0 | 0.00 | 0.00 | 0.00 | 48 | |
| 20260506195037 | 70 | 288 | 3.0 | 9.0 | 0.00 | 0.00 | 0.00 | 48 | |
| 20260506194535 | 70 | 182 | 3.0 | 11.0 | 0.00 | 0.00 | 0.00 | 47 | |
| 20260506194031 | 70 | 226 | 5.0 | 13.0 | 0.00 | 0.00 | 0.00 | 48 | |
| 20260506193529 | 69 | 239 | 9.0 | 18.0 | 0.00 | 0.00 | 0.00 | 49 | |
| 20260506193026 | 70 | 243 | 3.0 | 11.0 | 0.00 | 0.00 | 0.00 | 49 | |
| 20260506192523 | 71 | 23 | 4.0 | 16.0 | 0.00 | 0.00 | 0.00 | 47 | |
| 20260506192019 | 71 | 330 | 3.0 | 8.0 | 0.00 | 0.00 | 0.00 | 47 | |
| 20260506191516 | 70 | 271 | 2.0 | 10.0 | 0.00 | 0.00 | 0.00 | 47 | |
| 20260506191012 | 70 | 346 | 2.0 | 8.0 | 0.00 | 0.00 | 0.00 | 47 | |
| 20260506190509 | 70 | 332 | 1.0 | 10.0 | 0.00 | 0.00 | 0.00 | 47 | |
| 20260506190006 | 70 | 167 | 3.0 | 7.0 | 0.00 | 0.00 | 0.00 | 47 | |
| 20260506185503 | 70 | 40 | 0.0 | 7.0 | 0.00 | 0.00 | 0.00 | 47 | |
| 20260506184959 | 70 | 85 | 1.0 | 8.0 | 0.00 | 0.00 | 0.00 | 46 | |
| 20260506184457 | 69 | 25 | 5.0 | 9.0 | 0.00 | 0.00 | 0.00 | 48 | |
| 20260506183954 | 70 | 162 | 2.0 | 7.0 | 0.00 | 0.00 | 0.00 | 47 | |
| 20260506183449 | 70 | 52 | 3.0 | 11.0 | 0.00 | 0.00 | 0.00 | 47 | |
| 20260506182946 | 69 | 38 | 3.0 | 13.0 | 0.00 | 0.00 | 0.00 | 47 | |
| 20260506182444 | 69 | 308 | 3.0 | 8.0 | 0.00 | 0.00 | 0.00 | 48 | |
| 20260506181941 | 69 | 313 | 6.0 | 8.0 | 0.00 | 0.00 | 0.00 | 48 | |
| 20260506181439 | 68 | 216 | 4.0 | 10.0 | 0.00 | 0.00 | 0.00 | 50 | |
| 20260506180935 | 68 | 206 | 2.0 | 13.0 | 0.00 | 0.00 | 0.00 | 50 | |
| 20260506180432 | 67 | 218 | 3.0 | 11.0 | 0.00 | 0.00 | 0.00 | 51 | |
| 20260506175929 | 68 | 178 | 5.0 | 8.0 | 0.00 | 0.00 | 0.00 | 51 | |
| 20260506175425 | 67 | 283 | 4.0 | 13.0 | 0.00 | 0.00 | 0.00 | 52 | |
| 20260506174922 | 67 | 263 | 3.0 | 13.0 | 0.00 | 0.00 | 0.00 | 52 | |
| 20260506174420 | 66 | 293 | 3.0 | 14.0 | 0.00 | 0.00 | 0.00 | 52 | |
| 20260506173917 | 67 | 236 | 2.0 | 10.0 | 0.00 | 0.00 | 0.00 | 52 | |
| 20260506173414 | 68 | 173 | 5.0 | 10.0 | 0.00 | 0.00 | 0.00 | 51 | |
| 20260506172911 | 66 | 181 | 2.0 | 7.0 | 0.00 | 0.00 | 0.00 | 52 | |
| 20260506172407 | 66 | 225 | 3.0 | 10.0 | 0.00 | 0.00 | 0.00 | 53 | |
| 20260506171905 | 65 | 213 | 3.0 | 13.0 | 0.00 | 0.00 | 0.00 | 54 | |
| 20260506171402 | 65 | 222 | 3.0 | 9.0 | 0.00 | 0.00 | 0.00 | 54 | |
| 20260506170900 | 65 | 214 | 3.0 | 11.0 | 0.00 | 0.00 | 0.00 | 53 | |
| 20260506170356 | 65 | 139 | 2.0 | 6.0 | 0.00 | 0.00 | 0.00 | 54 | |
| 20260506165855 | 64 | 280 | 2.0 | 11.0 | 0.00 | 0.00 | 0.00 | 55 | |
| 20260506165352 | 65 | 251 | 3.0 | 5.0 | 0.00 | 0.00 | 0.00 | 55 | |
| 20260506164848 | 64 | 211 | 5.0 | 9.0 | 0.00 | 0.00 | 0.00 | 55 | |
| 20260506164345 | 64 | 151 | 2.0 | 10.0 | 0.00 | 0.00 | 0.00 | 56 | |
| 20260506163843 | 63 | 287 | 3.0 | 11.0 | 0.00 | 0.00 | 0.00 | 56 | |
| 20260506163337 | 63 | 259 | 3.0 | 8.0 | 0.00 | 0.00 | 0.00 | 56 | |
| 20260506162833 | 63 | 182 | 4.0 | 11.0 | 0.00 | 0.00 | 0.00 | 57 | |
| 20260506162331 | 63 | 319 | 3.0 | 11.0 | 0.00 | 0.00 | 0.00 | 58 | |
| 20260506161828 | 63 | 175 | 2.0 | 7.0 | 0.00 | 0.00 | 0.00 | 58 | |
| 20260506161325 | 62 | 297 | 3.0 | 9.0 | 0.00 | 0.00 | 0.00 | 59 | |
| 20260506160824 | 62 | 182 | 5.0 | 7.0 | 0.00 | 0.00 | 0.00 | 58 | |
| 20260506160320 | 62 | 215 | 2.0 | 24.0 | 0.00 | 0.00 | 0.00 | 58 | |
| 20260506155819 | 62 | 339 | 2.0 | 15.0 | 0.00 | 0.00 | 0.00 | 59 | |
| 20260506155315 | 61 | 170 | 2.0 | 11.0 | 0.00 | 0.00 | 0.00 | 60 | |
| 20260506153427 | 60 | 214 | 4.0 | 15.0 | 0.00 | 0.00 | 0.00 | 61 | |
| 20260506152924 | 60 | 282 | 1.0 | 11.0 | 0.00 | 0.00 | 0.00 | 63 | |
| 20260506152421 | 60 | 34 | 2.0 | 9.0 | 0.00 | 0.00 | 0.00 | 62 | |
| 20260506151920 | 59 | 193 | 7.0 | 12.0 | 0.00 | 0.00 | 0.00 | 63 | |
| 20260506151416 | 59 | 203 | 1.0 | 9.0 | 0.00 | 0.00 | 0.00 | 65 | |
| 20260506150914 | 59 | 171 | 7.0 | 8.0 | 0.00 | 0.00 | 0.00 | 66 | |
| 20260506150410 | 58 | 288 | 3.0 | 10.0 | 0.00 | 0.00 | 0.00 | 65 | |
| 20260506145907 | 58 | 262 | 2.0 | 10.0 | 0.00 | 0.00 | 0.00 | 67 | |
| 20260506145403 | 58 | 231 | 4.0 | 6.0 | 0.00 | 0.00 | 0.00 | 67 | |
| 20260506144901 | 57 | 277 | 3.0 | 10.0 | 0.00 | 0.00 | 0.00 | 68 | |
| 20260506144357 | 56 | 146 | 2.0 | 13.0 | 0.00 | 0.00 | 0.00 | 68 | |
| 20260506143855 | 56 | 189 | 2.0 | 9.0 | 0.00 | 0.00 | 0.00 | 69 | |
| 20260506143352 | 56 | 217 | 2.0 | 7.0 | 0.00 | 0.00 | 0.00 | 71 | |
| 20260506142851 | 55 | 268 | 3.0 | 8.0 | 0.00 | 0.00 | 0.00 | 71 | |
| 20260506142348 | 55 | 169 | 5.0 | 10.0 | 0.00 | 0.00 | 0.00 | 72 | |
| 20260506141846 | 55 | 196 | 6.0 | 11.0 | 0.00 | 0.00 | 0.00 | 73 | |
| 20260506141344 | 54 | 239 | 3.0 | 10.0 | 0.00 | 0.00 | 0.00 | 74 | |
| 20260506140842 | 54 | 291 | 3.0 | 7.0 | 0.00 | 0.00 | 0.00 | 75 | |
| 20260506140338 | 54 | 283 | 3.0 | 8.0 | 0.00 | 0.00 | 0.00 | 76 | |
| 20260506135835 | 54 | 218 | 3.0 | 10.0 | 0.00 | 0.00 | 0.00 | 77 | |
| 20260506135332 | 53 | 262 | 1.0 | 8.0 | 0.00 | 0.00 | 0.00 | 79 | |
| 20260506134828 | 53 | 200 | 6.0 | 13.0 | 0.00 | 0.00 | 0.00 | 78 | |
| 20260506134325 | 53 | 199 | 3.0 | 11.0 | 0.00 | 0.00 | 0.00 | 79 | |
| 20260506133822 | 53 | 202 | 5.0 | 14.0 | 0.00 | 0.00 | 0.00 | 80 | |
| 20260506133319 | 53 | 246 | 2.0 | 11.0 | 0.00 | 0.00 | 0.00 | 80 | |
| 20260506132815 | 53 | 235 | 6.0 | 10.0 | 0.00 | 0.00 | 0.00 | 80 | |
| 20260506132313 | 53 | 255 | 2.0 | 6.0 | 0.00 | 0.00 | 0.00 | 80 | |
| 20260506131811 | 53 | 206 | 5.0 | 12.0 | 0.00 | 0.00 | 0.00 | 80 | |
| 20260506131306 | 53 | 21 | 3.0 | 8.0 | 0.00 | 0.00 | 0.00 | 79 | |
| 20260506130804 | 52 | 225 | 7.0 | 14.0 | 0.00 | 0.00 | 0.00 | 81 | |
| 20260506130300 | 52 | 185 | 4.0 | 7.0 | 0.00 | 0.00 | 0.00 | 81 | |
| 20260506125758 | 52 | 200 | 2.0 | 8.0 | 0.00 | 0.00 | 0.00 | 81 | |
| 20260506125256 | 53 | 264 | 2.0 | 11.0 | 0.00 | 0.00 | 0.00 | 79 | |
| 20260506124754 | 53 | 229 | 4.0 | 8.0 | 0.00 | 0.00 | 0.00 | 78 | |
| 20260506124251 | 54 | 233 | 3.0 | 12.0 | 0.00 | 0.00 | 0.00 | 76 | |
| 20260506123749 | 54 | 163 | 2.0 | 10.0 | 0.00 | 0.00 | 0.00 | 77 | |
| 20260506123247 | 54 | 281 | 4.0 | 10.0 | 0.00 | 0.00 | 0.00 | 76 | |
| 20260506122743 | 54 | 259 | 2.0 | 13.0 | 0.00 | 0.00 | 0.00 | 77 | |
| 20260506122241 | 53 | 332 | 1.0 | 8.0 | 0.00 | 0.00 | 0.00 | 78 | |
| 20260506121739 | 53 | 189 | 3.0 | 8.0 | 0.00 | 0.00 | 0.00 | 79 | |
| 20260506121236 | 53 | 211 | 2.0 | 7.0 | 0.00 | 0.00 | 0.00 | 80 | |
| 20260506120733 | 53 | 180 | 3.0 | 9.0 | 0.00 | 0.00 | 0.00 | 80 | |
| 20260506120231 | 53 | 198 | 2.0 | 7.0 | 0.00 | 0.00 | 0.00 | 81 | |
| 20260506115728 | 53 | 180 | 3.0 | 8.0 | 0.00 | 0.00 | 0.00 | 80 | |
| 20260506115226 | 52 | 257 | 2.0 | 8.0 | 0.00 | 0.00 | 0.00 | 81 | |
| 20260506114724 | 53 | 200 | 3.0 | 8.0 | 0.00 | 0.00 | 0.00 | 81 | |
| 20260506114221 | 52 | 174 | 1.0 | 8.0 | 0.00 | 0.00 | 0.00 | 80 | |
| 20260506113720 | 52 | 1 | 2.0 | 6.0 | 0.00 | 0.00 | 0.00 | 81 | |
| 20260506113217 | 53 | 273 | 1.0 | 8.0 | 0.00 | 0.00 | 0.00 | 80 | |
| 20260506112713 | 52 | 186 | 2.0 | 12.0 | 0.00 | 0.00 | 0.00 | 81 | |
| 20260506112211 | 52 | 208 | 4.0 | 8.0 | 0.00 | 0.00 | 0.00 | 81 | |
| 20260506111708 | 53 | 189 | 4.0 | 8.0 | 0.00 | 0.00 | 0.00 | 81 | |
| 20260506111206 | 53 | 232 | 2.0 | 7.0 | 0.00 | 0.00 | 0.00 | 80 | |
| 20260506110702 | 53 | 267 | 3.0 | 7.0 | 0.00 | 0.00 | 0.00 | 80 | |
| 20260506110200 | 53 | 161 | 3.0 | 7.0 | 0.00 | 0.00 | 0.00 | 79 | |
| 20260506105656 | 53 | 339 | 2.0 | 5.0 | 0.00 | 0.00 | 0.00 | 78 | |
| 20260506105153 | 54 | 185 | 4.0 | 7.0 | 0.00 | 0.00 | 0.00 | 77 | |
| 20260506104652 | 54 | 212 | 3.0 | 15.0 | 0.00 | 0.00 | 0.00 | 75 | |
| 20260506104149 | 55 | 184 | 3.0 | 12.0 | 0.00 | 0.00 | 0.00 | 74 | |
| 20260506103646 | 55 | 229 | 2.0 | 7.0 | 0.00 | 0.00 | 0.00 | 72 | |
| 20260506103143 | 55 | 248 | 4.0 | 8.0 | 0.00 | 0.00 | 0.00 | 70 | |
| 20260506102641 | 55 | 108 | 3.0 | 5.0 | 0.00 | 0.00 | 0.00 | 71 | |
| 20260506102138 | 56 | 193 | 3.0 | 5.0 | 0.00 | 0.00 | 0.00 | 70 | |
| 20260506101635 | 55 | 78 | 5.0 | 7.0 | 0.00 | 0.00 | 0.00 | 71 | |
| 20260506101131 | 55 | 131 | 3.0 | 14.0 | 0.00 | 0.00 | 0.00 | 71 | |
| 20260506100630 | 55 | 192 | 5.0 | 8.0 | 0.00 | 0.00 | 0.00 | 71 | |
| 20260506100127 | 56 | 238 | 2.0 | 8.0 | 0.00 | 0.00 | 0.00 | 71 | |
| 20260506095626 | 56 | 227 | 3.0 | 7.0 | 0.00 | 0.00 | 0.00 | 71 | |
| 20260506095122 | 55 | 154 | 7.0 | 11.0 | 0.00 | 0.00 | 0.00 | 70 | |
| 20260506094620 | 55 | 181 | 2.0 | 7.0 | 0.00 | 0.00 | 0.00 | 71 | |
| 20260506094117 | 55 | 225 | 3.0 | 8.0 | 0.00 | 0.00 | 0.00 | 71 | |
| 20260506093616 | 55 | 261 | 4.0 | 10.0 | 0.00 | 0.00 | 0.00 | 73 | |
| 20260506093113 | 54 | 221 | 2.0 | 15.0 | 0.00 | 0.00 | 0.00 | 74 | |
| 20260506092610 | 55 | 227 | 0.0 | 7.0 | 0.00 | 0.00 | 0.00 | 74 | |
| 20260506092107 | 54 | 181 | 5.0 | 9.0 | 0.00 | 0.00 | 0.00 | 74 | |
| 20260506091606 | 54 | 234 | 2.0 | 7.0 | 0.00 | 0.00 | 0.00 | 75 | |
| 20260506091103 | 55 | 215 | 2.0 | 9.0 | 0.00 | 0.00 | 0.00 | 74 | |
| 20260506090600 | 55 | 308 | 2.0 | 6.0 | 0.00 | 0.00 | 0.00 | 73 | |
| 20260506090056 | 55 | 178 | 3.0 | 8.0 | 0.00 | 0.00 | 0.00 | 73 | |
| 20260506085553 | 55 | 180 | 6.0 | 9.0 | 0.00 | 0.00 | 0.00 | 71 | |
| 20260506085050 | 56 | 284 | 2.0 | 7.0 | 0.00 | 0.00 | 0.00 | 71 | |
| 20260506084547 | 56 | 205 | 3.0 | 9.0 | 0.00 | 0.00 | 0.00 | 69 | |
| 20260506084043 | 57 | 257 | 3.0 | 8.0 | 0.00 | 0.00 | 0.00 | 68 | |
| 20260506083540 | 57 | 174 | 3.0 | 16.0 | 0.00 | 0.00 | 0.00 | 66 | |
| 20260506083037 | 57 | 189 | 3.0 | 7.0 | 0.00 | 0.00 | 0.00 | 67 | |
| 20260506082534 | 57 | 200 | 4.0 | 8.0 | 0.00 | 0.00 | 0.00 | 67 | |
| 20260506082030 | 57 | 240 | 0.0 | 5.0 | 0.00 | 0.00 | 0.00 | 69 | |
| 20260506081528 | 58 | 217 | 4.0 | 7.0 | 0.00 | 0.00 | 0.00 | 66 | |
| 20260506081025 | 57 | 243 | 2.0 | 7.0 | 0.00 | 0.00 | 0.00 | 66 | |
| 20260506080523 | 57 | 241 | 2.0 | 11.0 | 0.00 | 0.00 | 0.00 | 66 | |
| 20260506073506 | 59 | 218 | 0.0 | 10.0 | 0.00 | 0.00 | 0.00 | 59 | |
| 20260506073003 | 59 | 250 | 3.0 | 8.0 | 0.00 | 0.00 | 0.00 | 58 | |
| 20260506072500 | 59 | 139 | 2.0 | 9.0 | 0.00 | 0.00 | 0.00 | 58 | |
| 20260506071958 | 59 | 322 | 0.0 | 14.0 | 0.00 | 0.00 | 0.00 | 59 | |
| 20260506071456 | 60 | 245 | 2.0 | 9.0 | 0.00 | 0.00 | 0.00 | 59 | |
| 20260506070953 | 59 | 159 | 4.0 | 9.0 | 0.00 | 0.00 | 0.00 | 60 | |
| 20260506070450 | 59 | 73 | 2.0 | 6.0 | 0.00 | 0.00 | 0.00 | 61 | |
| 20260506062427 | 59 | 40 | 3.0 | 9.0 | 0.00 | 0.00 | 0.00 | 67 | |
| 20260506061923 | 59 | 255 | 2.0 | 13.0 | 0.00 | 0.00 | 0.00 | 67 | |
| 20260506061420 | 59 | 155 | 3.0 | 7.0 | 0.00 | 0.00 | 0.00 | 66 | |
| 20260506060918 | 59 | 220 | 2.0 | 9.0 | 0.00 | 0.00 | 0.00 | 67 | |
| 20260506060416 | 59 | 139 | 5.0 | 6.0 | 0.00 | 0.00 | 0.00 | 68 | |
| 20260506051348 | 60 | 216 | 3.0 | 14.0 | 0.00 | 0.00 | 0.00 | 67 | |
| 20260506050845 | 60 | 223 | 6.0 | 11.0 | 0.00 | 0.00 | 0.00 | 68 | |
| 20260506050342 | 60 | 241 | 0.0 | 8.0 | 0.00 | 0.00 | 0.00 | 67 | |
| 20260506044833 | 60 | 288 | 6.0 | 13.0 | 0.00 | 0.00 | 0.00 | 65 | |
| 20260506044331 | 61 | 251 | 0.0 | 10.0 | 0.00 | 0.00 | 0.00 | 64 | |
| 20260506043827 | 61 | 340 | 5.0 | 11.0 | 0.00 | 0.00 | 0.00 | 64 | |
| 20260506043325 | 61 | 208 | 5.0 | 10.0 | 0.00 | 0.00 | 0.00 | 65 | |
| 20260506042823 | 61 | 202 | 4.0 | 11.0 | 0.00 | 0.00 | 0.00 | 65 | |
| 20260506042322 | 61 | 234 | 3.0 | 14.0 | 0.00 | 0.00 | 0.00 | 64 | |
| 20260506041820 | 62 | 267 | 3.0 | 7.0 | 0.00 | 0.00 | 0.00 | 63 | |
| 20260506041317 | 62 | 246 | 1.0 | 9.0 | 0.00 | 0.00 | 0.00 | 63 | |
| 20260506040814 | 62 | 221 | 4.0 | 12.0 | 0.00 | 0.00 | 0.00 | 64 | |
| 20260506040311 | 62 | 247 | 5.0 | 12.0 | 0.00 | 0.00 | 0.00 | 64 | |
| 20260506035807 | 63 | 248 | 3.0 | 6.0 | 0.00 | 0.00 | 0.00 | 64 | |
| 20260506035306 | 63 | 255 | 3.0 | 11.0 | 0.00 | 0.00 | 0.00 | 63 | |
| 20260506034802 | 63 | 53 | 3.0 | 7.0 | 0.00 | 0.00 | 0.00 | 62 | |
| 20260506034259 | 64 | 342 | 1.0 | 9.0 | 0.00 | 0.00 | 0.00 | 62 | |
| 20260506033756 | 64 | 208 | 3.0 | 15.0 | 0.00 | 0.00 | 0.00 | 62 | |
| 20260506033253 | 64 | 291 | 4.0 | 6.0 | 0.00 | 0.00 | 0.00 | 62 | |
| 20260506032750 | 64 | 284 | 3.0 | 5.0 | 0.00 | 0.00 | 0.00 | 61 | |
| 20260506032247 | 65 | 210 | 2.0 | 8.0 | 0.00 | 0.00 | 0.00 | 61 | |
| 20260506031743 | 65 | 259 | 3.0 | 17.0 | 0.00 | 0.00 | 0.00 | 60 | |
| 20260506031241 | 65 | 262 | 3.0 | 7.0 | 0.00 | 0.00 | 0.00 | 59 | |
| 20260506030739 | 66 | 168 | 1.0 | 8.0 | 0.00 | 0.00 | 0.00 | 59 | |
| 20260506030236 | 66 | 234 | 4.0 | 10.0 | 0.00 | 0.00 | 0.00 | 58 | |
| 20260506025733 | 66 | 249 | 4.0 | 10.0 | 0.00 | 0.00 | 0.00 | 57 | |
| 20260506025229 | 67 | 211 | 2.0 | 13.0 | 0.00 | 0.00 | 0.00 | 56 | |
| 20260506024726 | 67 | 279 | 4.0 | 10.0 | 0.00 | 0.00 | 0.00 | 55 | |
| 20260506024223 | 68 | 200 | 2.0 | 7.0 | 0.00 | 0.00 | 0.00 | 55 | |
| 20260506023719 | 68 | 252 | 2.0 | 15.0 | 0.00 | 0.00 | 0.00 | 54 | |
| 20260506023216 | 69 | 299 | 3.0 | 9.0 | 0.00 | 0.00 | 0.00 | 53 | |
| 20260506022713 | 69 | 277 | 0.0 | 8.0 | 0.00 | 0.00 | 0.00 | 53 | |
| 20260506022211 | 69 | 198 | 3.0 | 6.0 | 0.00 | 0.00 | 0.00 | 52 | |
| 20260506021709 | 70 | 175 | 2.0 | 11.0 | 0.00 | 0.00 | 0.00 | 51 | |
| 20260506021206 | 70 | 207 | 4.0 | 9.0 | 0.00 | 0.00 | 0.00 | 50 | |
| 20260506020702 | 71 | 306 | 3.0 | 9.0 | 0.00 | 0.00 | 0.00 | 50 | |
| 20260506020200 | 71 | 201 | 6.0 | 11.0 | 0.00 | 0.00 | 0.00 | 48 | |
| 20260506015657 | 72 | 218 | 6.0 | 7.0 | 0.00 | 0.00 | 0.00 | 48 | |
| 20260506015155 | 73 | 245 | 3.0 | 14.0 | 0.00 | 0.00 | 0.00 | 46 | |
| 20260506014652 | 74 | 269 | 5.0 | 7.0 | 0.00 | 0.00 | 0.00 | 45 | |
| 20260506014148 | 74 | 232 | 2.0 | 8.0 | 0.00 | 0.00 | 0.00 | 45 | |
| 20260506013646 | 74 | 357 | 1.0 | 11.0 | 0.00 | 0.00 | 0.00 | 44 | |
| 20260506013143 | 75 | 219 | 3.0 | 8.0 | 0.00 | 0.00 | 0.00 | 43 | |
| 20260506012638 | 75 | 235 | 2.0 | 11.0 | 0.00 | 0.00 | 0.00 | 43 | |
| 20260506012135 | 75 | 280 | 2.0 | 15.0 | 0.00 | 0.00 | 0.00 | 42 | |
| 20260506011633 | 76 | 284 | 3.0 | 11.0 | 0.00 | 0.00 | 0.00 | 42 | |
| 20260506011129 | 77 | 272 | 3.0 | 5.0 | 0.00 | 0.00 | 0.00 | 42 | |
| 20260506010628 | 77 | 70 | 1.0 | 6.0 | 0.00 | 0.00 | 0.00 | 41 | |
| 20260506010125 | 77 | 266 | 2.0 | 4.0 | 0.00 | 0.00 | 0.00 | 40 | |
| 20260506005621 | 77 | 239 | 4.0 | 9.0 | 0.00 | 0.00 | 0.00 | 39 | |
| 20260506005118 | 77 | 214 | 4.0 | 9.0 | 0.00 | 0.00 | 0.00 | 38 | |
| 20260506004615 | 77 | 256 | 3.0 | 13.0 | 0.00 | 0.00 | 0.00 | 38 | |
| 20260506004112 | 78 | 232 | 4.0 | 9.0 | 0.00 | 0.00 | 0.00 | 37 | |
| 20260506003608 | 79 | 211 | 3.0 | 10.0 | 0.00 | 0.00 | 0.00 | 36 | |
| 20260506003104 | 78 | 206 | 2.0 | 5.0 | 0.00 | 0.00 | 0.00 | 36 | |
| 20260506002600 | 78 | 231 | 2.0 | 8.0 | 0.00 | 0.00 | 0.00 | 37 | |
| 20260506002056 | 79 | 238 | 2.0 | 9.0 | 0.00 | 0.00 | 0.00 | 36 | |
| 20260506001552 | 79 | 273 | 2.0 | 9.0 | 0.00 | 0.00 | 0.00 | 35 | |
| 20260506001050 | 79 | 265 | 5.0 | 10.0 | 0.00 | 0.00 | 0.00 | 34 | |
| 20260506000547 | 78 | 223 | 4.0 | 7.0 | 0.00 | 0.00 | 0.00 | 35 | |
| 20260506000045 | 79 | 216 | 3.0 | 13.0 | 0.00 | 0.00 | 0.00 | 33 | |
| 20260505235543 | 80 | 302 | 1.0 | 8.0 | 0.00 | 0.00 | 0.00 | 33 | |
| 20260505235039 | 80 | 287 | 3.0 | 9.0 | 0.00 | 0.00 | 0.00 | 34 | |
| 20260505234536 | 81 | 222 | 4.0 | 9.0 | 0.00 | 0.00 | 0.00 | 32 | |
| 20260505234033 | 81 | 333 | 4.0 | 8.0 | 0.00 | 0.00 | 0.00 | 31 | |
| 20260505233530 | 82 | 230 | 4.0 | 9.0 | 0.00 | 0.00 | 0.00 | 31 | |
| 20260505233028 | 81 | 276 | 3.0 | 9.0 | 0.00 | 0.00 | 0.00 | 33 | |
| 20260505232526 | 80 | 263 | 2.0 | 10.0 | 0.00 | 0.00 | 0.00 | 33 |